399  
ASUS42 KMHX 181725  
RWRMHX  
WEATHER ROUNDUP FOR EASTERN NORTH CAROLINA  
NATIONAL WEATHER SERVICE NEWPORT/MOREHEAD CITY NC  
1200 PM EST WED JAN 18 2017  
 
NOTE: "FAIR" INDICATES FEW OR NO CLOUDS BELOW 12,000 FEET  
WITH NO SIGNIFICANT WEATHER AND/OR S TO VISIBILITY
 
 
NCZ015>017-031-032-045>047-102-103-181800-  
NORTH COAST  
 
CITY SKY/WX TMP DP RH WIND PRES REMARKS
 
EDENTON SUNNY 69 53 57 NW18 29.89F  
ELIZABETH CITY SUNNY 68 51 54 NW20G29 29.88F  
KITTY HAWK NOT AVBL  
MANTEO CLOUDY 61 60 94 W7 29.88F  
 

 
 
NCZ045>047-081-094-103-104-181800-  
CENTRAL COAST  
 
CITY SKY/WX TMP DP RH WIND PRES REMARKS
 
FRISCO CLOUDY 61 59 93 W10G20 29.88F FOG  
 

 
 
NCZ095-097-098-100-101-181800-  
SOUTHERN COAST  
 
CITY SKY/WX TMP DP RH WIND PRES REMARKS
 
BEAUFORT LGT RAIN 59 58 96 SW9 29.92F  
CEDAR ISLAND NOT AVBL  
JACKSONVILLE LGT RAIN 63 62 97 W9 29.93F  
PINEY ISLAND CLOUDY N/A N/A N/A W16 29.90F  
WILMINGTON CLOUDY 67 62 84 W9 29.96F  
 

 
 
NCZ011>013-027>030-043-044-078>080-089-090>093-098-181800-  
COASTAL PLAIN  
 
CITY SKY/WX TMP DP RH WIND PRES REMARKS
 
AHOSKIE N/A 65 48 53 NW6 29.91F  
CLINTON MOSUNNY 67 60 79 W6 29.96F  
ELIZABETHTOWN CLOUDY 68 60 74 W9 29.96F  
GOLDSBORO MOSUNNY 69 58 69 NW15G24 29.92F  
GREENVILLE PTSUNNY 70 59 68 NW8 29.93F  
HAVELOCK LGT RAIN 64 60 87 W15 29.93F  
KENANSVILLE CLOUDY 66 59 77 W7 29.95F  
KINSTON MOSUNNY 66 59 77 W5 29.94F  
NEW BERN PTSUNNY 65 61 87 W10G21 29.93F  
RICHLANDS CLOUDY 64 61 90 SW9 29.95F  
ROCKY MOUNT SUNNY 69 49 48 W14 29.93F  
WASHINGTON PTSUNNY 66 59 76 W7 29.91F  
WHITEVILLE CLOUDY 69 59 71 W8 29.97F  
 

 
 
AMZ130-135-150-152-154-156-158-170-250-252-270-ANZ085-086-088-633-658-670-181800-  
MARINE OBSERVATIONS  
 
STATION/POSITION TIME TEMP WIND PRES WAVE SWELL
 
AIR SEA DIR/SP/G HT/PER HT/PER  
(UTC) (F) (DEG/KT/KT) (MB) (FT/S) (FT/S)  
CHESAPEAKE LIGHT NOT AVBL  
64 E VA BEACH 1650 56 57 330/ 8/ 12 1011.1 4/ 6 3/ 6  
DUCK 1700 52 46 360/ 8/ 10 1011.2  
2 E DUCK 1700 45 N/A 1/ 7  
OREGON INLET 1700 53 51 240/ 7/ 9 1011.5  
13E OREGON INLT NOT AVBL  
HATTERAS CG 1700 60 54 250/ 14/ 19 1011.7  
DIAMOND BUOY 1650 65 72 270/ 25/ 31 1012.1 8/ 7 2/11  
CAPE LOOKOUT 1700 58 260/ 12/ 15 1013.0  
BEAUFORT LAB 1700 57 50 240/ 5/ 10 1012.2  
30 SE NEW RVR IN 1708 60 62 270/ 17/ 21 1013.9  
30 SE NEW RVR IN 1713 62 N/A 6/ 6  
27 SE WRIGHTSVLE 1708 65 68 240/ 19/ 27 1013.8  
5 SE WRIGHTSVLE 1708 57 220/ 10/ 12 1014.2  
225 S CAPE HAT 1650 71 71 240/ 16/ 19 1017.2 6/ 7 2/27  
41 SE CHARLESTON 1650 67 71 260/ 19/ 21 1017.8 4/ 5 2/ 8  
 

 
 
 
CLICK HERE TO GO TO PREVIOUS BULLETINS.

The Nexlab NC Page Main Text Page